Weather in Afonino

Russia / Nizhny Novgorod Oblast'     56°16′00″N   44°05′37″E
temp.,
°C
wind,
m/s
gust,
m/s
humid.,
%
clouds,
%
prec.,
mm/h
press.,
hPa
HPBL,
m
22 january, fri
fri2200:00−14wsw2396100 0.1 101460
03:00−15wsw1297100 0.1 101520
06:00−16sw1196100 0.0 101620
09:00−17sse1196100 0.0 101720
12:00−12se239393 0.0 1017204
15:00−11se359497 0.0 1017276
18:00−11ese4895100 0.6 1017295
21:00−11se5994100 0.9 1017327
23 january, sat
sat2300:00−10se51095100 0.5 1016338
03:00−9se4895100 1.3 1015286
06:00−6se369699 0.4 1014178
09:00−1se3610099 1.1 1013175
12:00+2ssw49100100 1.3 1013257
15:00+1sw49100100 1.8 1012252
18:00+1sw51099100 0.3 1013354
21:00+1sw41097100 0.3 1013430
24 january, sun
sun2400:00+1sw41198100 0.4 1014401
03:00+1sw51197100 0.5 1015378
06:00+1ssw4996100 0.0 1015287
09:00+1ssw3797100 0.0 1017239
12:00+1s37100100 0.0 1017222
15:00+1s2799100 0.0 1017215
18:00+1s3799100 0.0 1018254
21:00+1s4998100 0.1 1019291
25 january, mon
mon2500:00+1s3999100 0.1 1019286
03:00+1ssw3999100 0.5 1019338
06:00+1s410100100 0.6 1019327
09:00+1s41295100 0.9 1020372
12:00+1s51089100 0.0 1020424
15:000sse4991100 0.0 1020507
18:00−1sse4994100 0.0 1020494
21:00−1sse4993100 0.1 1020489
26 january, tue
tue2600:00−1sse41097100 0.8 1020468
03:00−2sse389598 1.7 1020354
06:00−2sse379697 0.1 1019349
09:00−1sse5109498 0.3 1019400
12:000se4993100 0.0 1019561
15:00−1sse5992100 0.0 1017584
18:00−1se51192100 0.0 1017593
21:00−2se61390100 0.0 1015551